Theta_e
325 325 325 324 324 323 323 324 323 321 320 319 319 320 319 318 316 314 314 311 306 305
325 325 324 323 324 324 325 324 324 323 322 319 317 316 315 311 308 307 304 302 301 300
324 325 325 322 323 322 320 319 319 317 316 313 311 308 306 303 301 299 297 297 297 296
322 319 319 320 319 317 314 314 313 311 308 305 303 302 301 298 297 296 295 295 294 292
314 315 316 315 313 310 309 306 306 304 302 300 299 298 297 295 294 293 292 292 291 289
309 313 310 308 307 305 302 300 299 298 298 296 294 294 294 293 292 292 291 290 289 287
304 302 301 301 300 299 298 297 296 295 293 291 291 290 289 290 290 289 288 287 287 286
298 298 297 295 294 293 293 292 291 289 289 288 288 288 288 288 288 287 286 285 285 285
295 292 291 290 288 289 288 288 288 287 287 287 286 288 291 288 287 286 285 283 283 284
291 289 288 287 287 286 286 287 286 286 286 286 288 291 290 288 285 284 284 283 282 281
288 287 286 286 286 285 286 286 286 285 286 286 287 290 289 286 284 283 283 282 282 281
287 286 286 286 285 285 285 285 285 285 285 286 287 290 288 285 283 282 281 281 281 280
287 287 286 286 285 284 286 285 284 284 285 286 286 289 288 285 283 281 279 279 279 280
287 287 287 285 284 285 284 284 284 284 284 285 285 286 287 285 282 281 278 277 277 278
Wind_Speed
14 11 11 12 9 9 9 9 10 10 10 10 8 8 9 6 5 5 6 8 4 4
15 14 11 11 10 9 10 9 11 11 11 8 7 7 6 5 5 5 4 5 5 4
14 14 11 8 10 8 6 6 6 7 7 6 5 6 5 4 4 7 3 5 7 3
11 9 8 7 7 7 5 6 6 6 6 6 6 7 6 6 6 7 6 5 6 8
8 8 8 6 6 6 7 5 6 6 6 6 6 5 8 9 6 8 8 6 9 8
7 7 7 7 6 6 6 6 6 6 6 7 7 6 6 7 8 8 9 9 9 9
7 7 7 8 7 6 5 6 6 5 6 6 6 7 8 8 9 8 7 6 7 8
7 8 8 7 6 6 6 5 5 6 5 5 5 5 9 9 9 11 9 6 6 6
8 8 7 6 6 6 6 6 6 6 6 7 4 13 16 13 10 10 10 9 6 6
8 7 6 6 6 6 6 6 6 7 7 6 5 15 15 13 8 9 8 9 9 7
7 6 6 7 7 5 5 6 7 7 6 8 6 17 18 15 10 8 8 9 9 9
8 9 8 7 7 5 7 6 7 8 9 10 9 17 18 13 9 9 8 7 8 9
9 9 9 9 9 4 5 5 5 6 6 8 10 17 19 12 6 8 7 6 6 11
8 9 8 7 3 6 6 6 5 6 5 6 7 11 17 15 8 8 7 7 6 6
Wind_Direction
187 195 198 195 193 200 201 202 198 201 200 201 193 195 196 199 201 206 200 179 186 171
198 197 197 194 192 196 198 198 190 194 195 185 187 191 178 178 169 164 155 141 152 145
196 200 196 180 192 181 177 173 159 160 162 166 165 155 146 151 143 124 127 138 134 111
193 178 172 183 174 155 138 146 152 151 153 150 164 155 152 138 144 138 133 122 122 111
162 158 156 152 128 135 150 146 150 146 146 158 157 157 151 151 146 128 134 134 131 127
149 150 136 126 135 136 133 138 138 145 158 158 155 143 124 133 137 148 147 146 140 136
149 132 123 125 126 131 133 133 138 145 139 139 129 124 132 135 134 124 120 125 137 141
118 110 109 114 121 115 117 120 118 124 119 108 122 143 145 136 133 133 132 120 123 128
117 112 120 121 125 124 124 128 122 119 138 146 151 161 152 146 139 134 138 136 119 126
120 124 128 129 125 127 138 136 146 148 143 130 130 153 145 130 131 137 141 142 142 135
124 119 120 135 142 138 143 145 142 139 140 137 146 155 153 142 135 135 151 155 151 142
138 148 154 154 155 145 145 159 161 159 153 151 156 162 158 145 145 142 146 145 146 153
159 159 166 160 163 156 153 143 132 137 158 158 154 169 169 154 137 136 142 146 149 162
156 165 164 148 129 138 139 141 141 140 144 149 154 171 175 166 165 162 156 160 167 180